| time (UTC) | temp C | wind direction | speed KPH | gust KPH | rain 1hr cm | rain 24hr cm | rain mn cm | humidity % | barometer mb |
| 20260906182204 | 21 | 64 | 0.0 | 1.6 | 0.10 | 0.79 | 0.00 | 92 | 1016.0 |
| 20260906181643 | 21 | 57 | 1.6 | 6.4 | 0.18 | 0.79 | 0.00 | 91 | 1016.0 |
| 20260906181123 | 21 | 305 | 0.0 | 1.6 | 0.18 | 0.79 | 0.00 | 90 | 1016.3 |
| 20260906180604 | 21 | 283 | 1.6 | 6.4 | 0.20 | 0.79 | 0.00 | 91 | 1016.5 |
| 20260906180043 | 20 | 52 | 0.0 | 1.6 | 0.18 | 0.76 | 0.00 | 92 | 1016.4 |
| 20260906175524 | 20 | 52 | 0.0 | 6.4 | 0.13 | 0.74 | 0.00 | 92 | 1016.3 |
| 20260906175003 | 20 | 339 | 1.6 | 6.4 | 0.18 | 0.74 | 0.00 | 90 | 1016.4 |
| 20260906174444 | 20 | 286 | 0.0 | 6.4 | 0.13 | 0.69 | 0.00 | 91 | 1016.6 |
| 20260906173924 | 20 | 287 | 0.0 | 4.8 | 0.18 | 0.69 | 0.00 | 90 | 1016.6 |
| 20260906173404 | 20 | 286 | 0.0 | 4.8 | 0.20 | 0.69 | 0.00 | 91 | 1016.7 |
| 20260906172843 | 20 | 0.0 | 0.0 | 0.25 | 0.69 | 0.00 | 91 | 1016.6 | |
| 20260906172323 | 20 | 0.0 | 0.0 | 0.25 | 0.66 | 0.00 | 90 | 1016.6 | |
| 20260906171804 | 20 | 0.0 | 1.6 | 0.23 | 0.61 | 0.00 | 91 | 1016.6 | |
| 20260906171244 | 20 | 265 | 1.6 | 6.4 | 0.25 | 0.61 | 0.00 | 91 | 1016.6 |
| 20260906170723 | 20 | 17 | 1.6 | 6.4 | 0.25 | 0.58 | 0.00 | 90 | 1016.1 |
| 20260906170203 | 20 | 34 | 1.6 | 6.4 | 0.28 | 0.58 | 0.00 | 90 | 1015.9 |
| 20260906165643 | 20 | 18 | 0.0 | 4.8 | 0.28 | 0.58 | 0.00 | 90 | 1015.8 |
| 20260906165123 | 19 | 122 | 1.6 | 6.4 | 0.28 | 0.58 | 0.00 | 91 | 1015.6 |
| 20260906164604 | 19 | 0.0 | 1.6 | 0.25 | 0.56 | 0.00 | 91 | 1015.7 | |
| 20260906164044 | 19 | 0.0 | 1.6 | 0.23 | 0.53 | 0.00 | 91 | 1015.7 | |
| 20260906163523 | 19 | 0.0 | 0.0 | 0.20 | 0.51 | 0.00 | 91 | 1015.8 | |
| 20260906163003 | 19 | 0.0 | 3.2 | 0.13 | 0.46 | 0.00 | 91 | 1015.9 | |
| 20260906162444 | 19 | 128 | 0.0 | 3.2 | 0.13 | 0.46 | 0.00 | 90 | 1015.9 |
| 20260906161924 | 19 | 0.0 | 11.3 | 0.08 | 0.38 | 0.00 | 90 | 1015.9 | |
| 20260906161403 | 19 | 0.0 | 3.2 | 0.08 | 0.38 | 0.00 | 90 | 1015.7 | |
| 20260906160844 | 20 | 0.0 | 3.2 | 0.03 | 0.33 | 0.00 | 89 | 1015.6 | |
| 20260906160323 | 19 | 128 | 0.0 | 3.2 | 0.00 | 0.30 | 0.00 | 89 | 1015.6 |
| 20260906155804 | 20 | 128 | 0.0 | 3.2 | 0.00 | 0.30 | 0.00 | 88 | 1015.5 |
| 20260906155243 | 20 | 0.0 | 0.0 | 0.00 | 0.30 | 0.00 | 87 | 1015.3 | |
| 20260906154723 | 20 | 0.0 | 3.2 | 0.08 | 0.30 | 0.00 | 86 | 1015.0 | |
| 20260906154204 | 20 | 0.0 | 0.0 | 0.10 | 0.30 | 0.00 | 86 | 1014.9 | |
| 20260906153643 | 20 | 0.0 | 0.0 | 0.10 | 0.30 | 0.00 | 86 | 1014.8 | |
| 20260906153124 | 20 | 0.0 | 0.0 | 0.18 | 0.30 | 0.00 | 86 | 1014.6 | |
| 20260906152604 | 20 | 0.0 | 3.2 | 0.20 | 0.30 | 0.00 | 87 | 1014.5 | |
| 20260906152044 | 20 | 63 | 1.6 | 11.3 | 0.25 | 0.30 | 0.00 | 87 | 1014.3 |
| 20260906151524 | 19 | 0.0 | 3.2 | 0.25 | 1.96 | 0.00 | 87 | 1014.2 | |
| 20260906151004 | 19 | 63 | 0.0 | 3.2 | 0.25 | 1.96 | 0.00 | 87 | 1014.1 |
| 20260906150443 | 19 | 63 | 0.0 | 4.8 | 1.96 | 1.96 | 0.00 | 87 | 1014.1 |
| 20260906145923 | 19 | 36 | 0.0 | 3.2 | 1.96 | 1.96 | 0.00 | 86 | 1014.2 |
| 20260906145403 | 19 | 0.0 | 3.2 | 1.96 | 1.96 | 0.00 | 87 | 1014.2 | |
| 20260906144844 | 19 | 117 | 0.0 | 11.3 | 1.96 | 1.96 | 0.00 | 87 | 1014.1 |
| 20260906144329 | 19 | 45 | 0.0 | 3.2 | 1.85 | 1.85 | 0.00 | 80 | 1014.1 |
| 20260906124139 | 20 | 0.0 | 0.0 | 0.00 | 0.00 | 0.00 | 84 | 1014.5 | |
| 20260906115257 | 23 | 0.0 | 0.0 | 0.00 | 0.00 | 0.00 | 56 | 1012.4 | |
| 20260906114737 | 23 | 0.0 | 0.0 | 0.00 | 0.00 | 0.00 | 57 | 1012.4 | |
| 20260906114218 | 23 | 0.0 | 0.0 | 0.00 | 0.00 | 0.00 | 57 | 1012.4 | |
| 20260906113657 | 23 | 0.0 | 0.0 | 0.00 | 0.00 | 0.00 | 58 | 1012.5 | |
| 20260906113137 | 23 | 0.0 | 0.0 | 0.00 | 0.00 | 0.00 | 58 | 1012.5 | |
| 20260906112617 | 22 | 0.0 | 0.0 | 0.00 | 0.00 | 0.00 | 59 | 1012.6 | |
| 20260906112057 | 22 | 0.0 | 0.0 | 0.00 | 0.00 | 0.00 | 59 | 1012.6 | |
| 20260906111538 | 23 | 0.0 | 0.0 | 0.00 | 0.00 | 0.00 | 59 | 1012.6 | |
| 20260906111017 | 22 | 0.0 | 0.0 | 0.00 | 0.00 | 0.00 | 60 | 1012.5 | |
| 20260906110457 | 22 | 0.0 | 0.0 | 0.00 | 0.00 | 0.00 | 62 | 1012.5 | |
| 20260906105937 | 22 | 0.0 | 0.0 | 0.00 | 0.00 | 0.00 | 63 | 1012.5 | |
| 20260906105418 | 22 | 0.0 | 0.0 | 0.00 | 0.00 | 0.00 | 64 | 1012.5 | |
| 20260906104858 | 22 | 0.0 | 0.0 | 0.00 | 0.00 | 0.00 | 64 | 1012.6 | |
| 20260906104338 | 22 | 0.0 | 0.0 | 0.00 | 0.00 | 0.00 | 65 | 1012.6 | |
| 20260906103817 | 22 | 0.0 | 0.0 | 0.00 | 0.00 | 0.00 | 65 | 1012.6 | |
| 20260906103258 | 22 | 0.0 | 0.0 | 0.00 | 0.00 | 0.00 | 65 | 1012.6 | |
| 20260906102737 | 22 | 0.0 | 0.0 | 0.00 | 0.00 | 0.00 | 67 | 1012.5 | |
| 20260906102217 | 22 | 0.0 | 0.0 | 0.00 | 0.00 | 0.00 | 68 | 1012.5 | |
| 20260906101658 | 22 | 0.0 | 0.0 | 0.00 | 0.00 | 0.00 | 66 | 1012.5 | |
| 20260906101138 | 22 | 0.0 | 0.0 | 0.00 | 0.00 | 0.00 | 66 | 1012.5 | |
| 20260906100618 | 22 | 0.0 | 0.0 | 0.00 | 0.00 | 0.00 | 65 | 1012.5 | |
| 20260906100057 | 22 | 0.0 | 0.0 | 0.00 | 0.00 | 0.00 | 63 | 1012.6 | |
| 20260906095537 | 22 | 0.0 | 0.0 | 0.00 | 0.00 | 0.00 | 63 | 1012.6 | |
| 20260906095018 | 22 | 0.0 | 0.0 | 0.00 | 0.00 | 0.00 | 64 | 1012.7 | |
| 20260906094458 | 22 | 0.0 | 0.0 | 0.00 | 0.00 | 0.00 | 66 | 1012.6 | |
| 20260906093938 | 22 | 0.0 | 1.6 | 0.00 | 0.00 | 0.00 | 66 | 1012.6 | |
| 20260906093418 | 22 | 0.0 | 0.0 | 0.00 | 0.00 | 0.00 | 66 | 1012.6 | |
| 20260906092858 | 22 | 0.0 | 0.0 | 0.00 | 0.00 | 0.00 | 69 | 1012.6 | |
| 20260906092338 | 22 | 0.0 | 0.0 | 0.00 | 0.00 | 0.00 | 70 | 1012.6 | |
| 20260906091817 | 22 | 0.0 | 0.0 | 0.00 | 0.00 | 0.00 | 70 | 1012.6 | |
| 20260906091257 | 22 | 0.0 | 0.0 | 0.00 | 0.00 | 0.00 | 71 | 1012.6 | |
| 20260906090738 | 22 | 0.0 | 0.0 | 0.00 | 0.00 | 0.00 | 71 | 1012.6 | |
| 20260906090217 | 22 | 0.0 | 0.0 | 0.00 | 0.00 | 0.00 | 71 | 1012.7 | |
| 20260906085658 | 22 | 0.0 | 0.0 | 0.00 | 0.00 | 0.00 | 70 | 1012.7 | |
| 20260906085138 | 22 | 0.0 | 0.0 | 0.00 | 0.00 | 0.00 | 71 | 1012.8 | |
| 20260906084617 | 22 | 0.0 | 0.0 | 0.00 | 0.00 | 0.00 | 72 | 1012.8 | |
| 20260906084058 | 22 | 0.0 | 0.0 | 0.00 | 0.00 | 0.00 | 73 | 1012.8 | |
| 20260906083538 | 22 | 0.0 | 0.0 | 0.00 | 0.00 | 0.00 | 74 | 1012.8 | |
| 20260906083018 | 22 | 0.0 | 0.0 | 0.00 | 0.00 | 0.00 | 76 | 1012.8 | |
| 20260906082458 | 22 | 0.0 | 0.0 | 0.00 | 0.00 | 0.00 | 77 | 1012.9 | |
| 20260906081937 | 22 | 0.0 | 0.0 | 0.00 | 0.00 | 0.00 | 77 | 1013.0 | |
| 20260906081418 | 22 | 0.0 | 0.0 | 0.00 | 0.00 | 0.00 | 77 | 1013.0 | |
| 20260906080858 | 22 | 0.0 | 0.0 | 0.00 | 0.00 | 0.00 | 77 | 1013.0 | |
| 20260906080337 | 22 | 0.0 | 0.0 | 0.00 | 0.00 | 0.00 | 76 | 1013.0 | |
| 20260906075817 | 22 | 0.0 | 0.0 | 0.00 | 0.00 | 0.00 | 76 | 1013.0 | |
| 20260906075258 | 22 | 0.0 | 0.0 | 0.00 | 0.00 | 0.00 | 76 | 1013.0 | |
| 20260906074737 | 22 | 0.0 | 0.0 | 0.00 | 0.00 | 0.00 | 76 | 1013.0 | |
| 20260906074218 | 22 | 0.0 | 0.0 | 0.00 | 0.00 | 0.00 | 76 | 1013.0 | |
| 20260906073657 | 22 | 0.0 | 0.0 | 0.00 | 0.00 | 0.00 | 77 | 1013.0 | |
| 20260906073137 | 22 | 0.0 | 0.0 | 0.00 | 0.00 | 0.00 | 75 | 1013.0 | |
| 20260906072618 | 22 | 0.0 | 1.6 | 0.00 | 0.00 | 0.00 | 75 | 1013.0 | |
| 20260906072058 | 22 | 213 | 1.6 | 3.2 | 0.00 | 0.00 | 0.00 | 76 | 1013.0 |
| 20260906071538 | 22 | 213 | 1.6 | 3.2 | 0.00 | 0.00 | 0.00 | 76 | 1012.9 |
| 20260906071018 | 22 | 0.0 | 0.0 | 0.00 | 0.00 | 0.00 | 75 | 1012.9 | |
| 20260906070458 | 22 | 0.0 | 1.6 | 0.00 | 0.00 | 0.00 | 75 | 1012.9 | |
| 20260906065937 | 22 | 0.0 | 1.6 | 0.00 | 0.00 | 0.00 | 75 | 1012.9 | |
| 20260906065418 | 22 | 0.0 | 0.0 | 0.00 | 0.00 | 0.00 | 75 | 1012.8 | |
| 20260906064858 | 22 | 0.0 | 0.0 | 0.00 | 0.00 | 0.00 | 75 | 1012.8 | |
| 20260906064337 | 22 | 0.0 | 0.0 | 0.00 | 0.00 | 0.00 | 74 | 1012.9 | |
| 20260906063817 | 22 | 0.0 | 1.6 | 0.00 | 0.00 | 0.00 | 75 | 1012.9 | |
| 20260906063258 | 22 | 0.0 | 1.6 | 0.00 | 0.00 | 0.00 | 75 | 1013.0 | |
| 20260906062738 | 22 | 0.0 | 0.0 | 0.00 | 0.00 | 0.00 | 74 | 1013.0 | |
| 20260906062217 | 22 | 0.0 | 0.0 | 0.00 | 0.00 | 0.00 | 73 | 1013.1 | |
| 20260906061658 | 22 | 0.0 | 1.6 | 0.00 | 0.00 | 0.00 | 73 | 1013.1 | |
| 20260906061137 | 22 | 214 | 0.0 | 3.2 | 0.00 | 0.00 | 0.00 | 73 | 1013.0 |
| 20260906060618 | 22 | 0.0 | 0.0 | 0.00 | 0.00 | 0.00 | 73 | 1013.0 | |
| 20260906060058 | 22 | 0.0 | 0.0 | 0.00 | 0.00 | 0.00 | 72 | 1013.0 | |
| 20260906055538 | 22 | 0.0 | 1.6 | 0.00 | 0.00 | 0.00 | 71 | 1013.1 | |
| 20260906055018 | 22 | 0.0 | 1.6 | 0.00 | 0.00 | 0.00 | 71 | 1013.1 | |
| 20260906054457 | 22 | 213 | 0.0 | 1.6 | 0.00 | 0.00 | 0.00 | 70 | 1013.1 |
| 20260906053937 | 22 | 213 | 0.0 | 1.6 | 0.00 | 0.00 | 0.00 | 70 | 1013.1 |
| 20260906053417 | 22 | 0.0 | 0.0 | 0.00 | 0.00 | 0.00 | 69 | 1013.2 | |
| 20260906052858 | 23 | 213 | 0.0 | 3.2 | 0.00 | 0.00 | 0.00 | 68 | 1013.2 |
| 20260906052337 | 23 | 0.0 | 1.6 | 0.00 | 0.00 | 0.00 | 67 | 1013.2 | |
| 20260906051818 | 23 | 213 | 0.0 | 1.6 | 0.00 | 0.00 | 0.00 | 65 | 1013.2 |
| 20260906051258 | 23 | 213 | 0.0 | 3.2 | 0.00 | 0.00 | 0.00 | 64 | 1013.2 |
| 20260906050738 | 23 | 212 | 0.0 | 1.6 | 0.00 | 0.00 | 0.00 | 64 | 1013.2 |
| 20260906050218 | 23 | 214 | 0.0 | 3.2 | 0.00 | 0.00 | 0.00 | 64 | 1013.2 |
| 20260906045658 | 23 | 0.0 | 1.6 | 0.00 | 0.00 | 0.00 | 63 | 1013.2 | |
| 20260906045137 | 23 | 213 | 0.0 | 3.2 | 0.00 | 0.00 | 0.00 | 63 | 1013.2 |
| 20260906044618 | 23 | 0.0 | 1.6 | 0.00 | 0.00 | 0.00 | 62 | 1013.2 | |
| 20260906044058 | 23 | 0.0 | 1.6 | 0.00 | 0.00 | 0.00 | 62 | 1013.2 | |
| 20260906043537 | 23 | 213 | 0.0 | 1.6 | 0.00 | 0.00 | 0.00 | 61 | 1013.2 |
| 20260906043018 | 23 | 0.0 | 1.6 | 0.00 | 0.00 | 0.00 | 61 | 1013.2 | |
| 20260906042458 | 23 | 213 | 0.0 | 3.2 | 0.00 | 0.00 | 0.00 | 60 | 1013.2 |
| 20260906041938 | 23 | 213 | 0.0 | 1.6 | 0.00 | 0.00 | 0.00 | 59 | 1013.2 |
| 20260906041418 | 23 | 213 | 1.6 | 4.8 | 0.00 | 0.00 | 0.00 | 59 | 1013.2 |
| 20260906040858 | 23 | 0.0 | 0.0 | 0.00 | 0.00 | 0.00 | 57 | 1013.2 | |
| 20260906040338 | 23 | 0.0 | 0.0 | 0.00 | 0.00 | 0.00 | 56 | 1013.1 | |
| 20260906035818 | 23 | 214 | 1.6 | 3.2 | 0.00 | 0.00 | 0.00 | 56 | 1013.0 |
| 20260906035258 | 23 | 207 | 1.6 | 3.2 | 0.00 | 0.00 | 0.00 | 55 | 1013.0 |
| 20260906034738 | 24 | 0.0 | 3.2 | 0.00 | 0.00 | 0.00 | 53 | 1013.0 | |
| 20260906034218 | 24 | 0.0 | 1.6 | 0.00 | 0.00 | 0.00 | 52 | 1012.9 | |
| 20260906033658 | 24 | 131 | 0.0 | 1.6 | 0.00 | 0.00 | 0.00 | 51 | 1012.9 |
| 20260906033137 | 24 | 141 | 0.0 | 3.2 | 0.00 | 0.00 | 0.00 | 49 | 1012.8 |
| 20260906032617 | 25 | 0.0 | 3.2 | 0.00 | 0.00 | 0.00 | 47 | 1012.8 | |
| 20260906032057 | 25 | 0.0 | 3.2 | 0.00 | 0.00 | 0.00 | 46 | 1012.7 | |
| 20260906031538 | 25 | 251 | 0.0 | 3.2 | 0.00 | 0.00 | 0.00 | 45 | 1012.6 |
| 20260906031017 | 25 | 0.0 | 1.6 | 0.00 | 0.00 | 0.00 | 43 | 1012.5 | |
| 20260906030457 | 25 | 0.0 | 3.2 | 0.00 | 0.00 | 0.00 | 41 | 1012.4 | |
| 20260906025937 | 25 | 247 | 1.6 | 3.2 | 0.00 | 0.00 | 0.00 | 41 | 1012.4 |
| 20260906025418 | 25 | 237 | 3.2 | 4.8 | 0.00 | 0.00 | 0.00 | 41 | 1012.4 |
| 20260906024857 | 25 | 237 | 3.2 | 8.0 | 0.00 | 0.00 | 0.00 | 43 | 1012.4 |
| 20260906024338 | 25 | 233 | 1.6 | 4.8 | 0.00 | 0.00 | 0.00 | 44 | 1012.5 |
| 20260906022217 | 25 | 246 | 4.8 | 11.3 | 0.00 | 0.00 | 0.00 | 40 | 1012.5 |
| 20260906021658 | 26 | 239 | 4.8 | 11.3 | 0.00 | 0.00 | 0.00 | 38 | 1012.5 |
| 20260906021137 | 26 | 234 | 6.4 | 11.3 | 0.00 | 0.00 | 0.00 | 38 | 1012.5 |
| 20260906020617 | 26 | 253 | 3.2 | 11.3 | 0.00 | 0.00 | 0.00 | 38 | 1012.5 |
| 20260906020057 | 26 | 238 | 4.8 | 11.3 | 0.00 | 0.00 | 0.00 | 38 | 1012.4 |
| 20260906015537 | 26 | 238 | 4.8 | 11.3 | 0.00 | 0.00 | 0.00 | 37 | 1012.3 |
| 20260906015018 | 27 | 262 | 6.4 | 11.3 | 0.00 | 0.00 | 0.00 | 39 | 1012.3 |
| 20260906014458 | 27 | 233 | 6.4 | 12.9 | 0.00 | 0.00 | 0.00 | 38 | 1012.4 |
| 20260906013937 | 27 | 239 | 6.4 | 12.9 | 0.00 | 0.00 | 0.00 | 39 | 1012.4 |
| 20260906013417 | 28 | 250 | 8.0 | 12.9 | 0.00 | 0.00 | 0.00 | 38 | 1012.4 |
| 20260906012857 | 28 | 243 | 6.4 | 9.7 | 0.00 | 0.00 | 0.00 | 38 | 1012.5 |
| 20260906012338 | 28 | 231 | 6.4 | 14.5 | 0.00 | 0.00 | 0.00 | 39 | 1012.4 |
| 20260906011818 | 28 | 233 | 8.0 | 14.5 | 0.00 | 0.00 | 0.00 | 39 | 1012.4 |
| 20260906011257 | 28 | 233 | 6.4 | 16.1 | 0.00 | 0.00 | 0.00 | 40 | 1012.4 |
| 20260906010737 | 28 | 235 | 6.4 | 11.3 | 0.00 | 0.00 | 0.00 | 40 | 1012.3 |
| 20260906010218 | 27 | 253 | 6.4 | 11.3 | 0.00 | 0.00 | 0.00 | 42 | 1012.4 |
| 20260906005657 | 27 | 250 | 6.4 | 12.9 | 0.00 | 0.00 | 0.00 | 45 | 1012.4 |
| 20260906005137 | 27 | 251 | 6.4 | 11.3 | 0.00 | 0.00 | 0.00 | 44 | 1012.4 |
| 20260906004617 | 27 | 243 | 6.4 | 12.9 | 0.00 | 0.00 | 0.00 | 45 | 1012.4 |
| 20260906004057 | 27 | 233 | 6.4 | 12.9 | 0.00 | 0.00 | 0.00 | 44 | 1012.3 |
| 20260906003537 | 28 | 237 | 6.4 | 12.9 | 0.00 | 0.00 | 0.00 | 45 | 1012.3 |
| 20260906003017 | 28 | 232 | 8.0 | 12.9 | 0.00 | 0.00 | 0.00 | 45 | 1012.2 |
| 20260906002457 | 28 | 237 | 8.0 | 16.1 | 0.00 | 0.00 | 0.00 | 43 | 1012.2 |
| 20260906001937 | 29 | 240 | 8.0 | 12.9 | 0.00 | 0.00 | 0.00 | 43 | 1012.3 |
| 20260906001417 | 30 | 243 | 8.0 | 12.9 | 0.00 | 0.00 | 0.00 | 42 | 1012.3 |
| 20260906000857 | 29 | 239 | 8.0 | 12.9 | 0.00 | 0.00 | 0.00 | 45 | 1012.3 |
| 20260906000337 | 29 | 252 | 9.7 | 17.7 | 0.00 | 0.00 | 0.00 | 45 | 1012.3 |
| 20260905235817 | 29 | 228 | 4.8 | 11.3 | 0.00 | 0.00 | 0.00 | 46 | 1012.3 |
| 20260905235257 | 28 | 242 | 8.0 | 16.1 | 0.00 | 0.00 | 0.00 | 45 | 1012.2 |
| 20260905234737 | 29 | 233 | 4.8 | 16.1 | 0.00 | 0.00 | 0.00 | 46 | 1012.2 |
| 20260905234217 | 28 | 253 | 9.7 | 16.1 | 0.00 | 0.00 | 0.00 | 48 | 1012.2 |
| 20260905233657 | 28 | 234 | 8.0 | 12.9 | 0.00 | 0.00 | 0.00 | 45 | 1012.2 |
| 20260905233137 | 29 | 232 | 6.4 | 12.9 | 0.00 | 0.00 | 0.00 | 45 | 1012.2 |
| 20260905232617 | 29 | 231 | 6.4 | 16.1 | 0.00 | 0.00 | 0.00 | 45 | 1012.3 |
| 20260905232057 | 29 | 241 | 8.0 | 16.1 | 0.00 | 0.00 | 0.00 | 43 | 1012.3 |
| 20260905231537 | 30 | 244 | 9.7 | 17.7 | 0.00 | 0.00 | 0.00 | 42 | 1012.3 |
| 20260905231017 | 30 | 236 | 8.0 | 14.5 | 0.00 | 0.00 | 0.00 | 41 | 1012.3 |
| 20260905230457 | 30 | 254 | 8.0 | 16.1 | 0.00 | 0.00 | 0.00 | 44 | 1012.3 |
| 20260905225937 | 31 | 247 | 8.0 | 17.7 | 0.00 | 0.00 | 0.00 | 42 | 1012.3 |
| 20260905225417 | 30 | 260 | 6.4 | 12.9 | 0.00 | 0.00 | 0.00 | 43 | 1012.3 |
| 20260905224857 | 30 | 250 | 8.0 | 12.9 | 0.00 | 0.00 | 0.00 | 44 | 1012.4 |
| 20260905224337 | 30 | 236 | 6.4 | 12.9 | 0.00 | 0.00 | 0.00 | 43 | 1012.5 |
| 20260905223817 | 30 | 246 | 9.7 | 16.1 | 0.00 | 0.00 | 0.00 | 42 | 1012.5 |
| 20260905223257 | 31 | 231 | 4.8 | 11.3 | 0.00 | 0.00 | 0.00 | 41 | 1012.6 |
| 20260905222737 | 30 | 254 | 9.7 | 12.9 | 0.00 | 0.00 | 0.00 | 43 | 1012.6 |
| 20260905222217 | 31 | 240 | 6.4 | 11.3 | 0.00 | 0.00 | 0.00 | 39 | 1012.7 |
| 20260905221657 | 31 | 221 | 4.8 | 11.3 | 0.00 | 0.00 | 0.00 | 39 | 1012.8 |
| 20260905221137 | 30 | 238 | 6.4 | 16.1 | 0.00 | 0.00 | 0.00 | 41 | 1012.8 |
| 20260905220617 | 31 | 236 | 6.4 | 11.3 | 0.00 | 0.00 | 0.00 | 41 | 1012.9 |
| 20260905220057 | 31 | 251 | 6.4 | 16.1 | 0.00 | 0.00 | 0.00 | 39 | 1012.9 |
| 20260905215537 | 31 | 234 | 4.8 | 12.9 | 0.00 | 0.00 | 0.00 | 37 | 1012.9 |
| 20260905215017 | 31 | 238 | 8.0 | 12.9 | 0.00 | 0.00 | 0.00 | 38 | 1012.9 |
| 20260905214457 | 31 | 258 | 8.0 | 14.5 | 0.00 | 0.00 | 0.00 | 40 | 1013.0 |
| 20260905213937 | 31 | 241 | 8.0 | 16.1 | 0.00 | 0.00 | 0.00 | 39 | 1013.1 |
| 20260905213417 | 31 | 247 | 8.0 | 12.9 | 0.00 | 0.00 | 0.00 | 40 | 1013.0 |
| 20260905212857 | 31 | 248 | 6.4 | 11.3 | 0.00 | 0.00 | 0.00 | 39 | 1013.1 |
| 20260905212337 | 31 | 234 | 6.4 | 16.1 | 0.00 | 0.00 | 0.00 | 40 | 1013.2 |
| 20260905211817 | 30 | 240 | 6.4 | 12.9 | 0.00 | 0.00 | 0.00 | 40 | 1013.2 |
| 20260905211257 | 30 | 253 | 8.0 | 12.9 | 0.00 | 0.00 | 0.00 | 42 | 1013.2 |
| 20260905210739 | 30 | 254 | 6.4 | 11.3 | 0.00 | 0.00 | 0.00 | 43 | 1013.2 |
| 20260905210217 | 30 | 232 | 6.4 | 12.9 | 0.00 | 0.00 | 0.00 | 43 | 1013.3 |
| 20260905205657 | 30 | 252 | 9.7 | 17.7 | 0.00 | 0.00 | 0.00 | 45 | 1013.4 |
| 20260905205137 | 30 | 242 | 4.8 | 11.3 | 0.00 | 0.00 | 0.00 | 45 | 1013.4 |
| 20260905204617 | 30 | 240 | 8.0 | 16.1 | 0.00 | 0.00 | 0.00 | 44 | 1013.5 |
| 20260905204057 | 30 | 241 | 6.4 | 16.1 | 0.00 | 0.00 | 0.00 | 44 | 1013.6 |
| 20260905203538 | 30 | 235 | 8.0 | 16.1 | 0.00 | 0.00 | 0.00 | 44 | 1013.6 |
| 20260905203017 | 30 | 234 | 4.8 | 16.1 | 0.00 | 0.00 | 0.00 | 44 | 1013.6 |
| 20260905202457 | 30 | 233 | 8.0 | 17.7 | 0.00 | 0.00 | 0.00 | 42 | 1013.6 |
| 20260905201937 | 30 | 228 | 6.4 | 11.3 | 0.00 | 0.00 | 0.00 | 42 | 1013.6 |
| 20260905201417 | 30 | 240 | 6.4 | 14.5 | 0.00 | 0.00 | 0.00 | 41 | 1013.7 |
| 20260905200857 | 30 | 237 | 6.4 | 12.9 | 0.00 | 0.00 | 0.00 | 41 | 1013.8 |
| 20260905200337 | 31 | 246 | 6.4 | 12.9 | 0.00 | 0.00 | 0.00 | 40 | 1013.8 |
| 20260905195817 | 31 | 245 | 4.8 | 12.9 | 0.00 | 0.00 | 0.00 | 40 | 1013.8 |
| 20260905195257 | 31 | 244 | 4.8 | 11.3 | 0.00 | 0.00 | 0.00 | 39 | 1013.9 |
| 20260905194737 | 32 | 245 | 3.2 | 6.4 | 0.00 | 0.00 | 0.00 | 36 | 1014.0 |
| 20260905194217 | 32 | 131 | 3.2 | 8.0 | 0.00 | 0.00 | 0.00 | 36 | 1014.0 |
| 20260905193657 | 32 | 170 | 3.2 | 9.7 | 0.00 | 0.00 | 0.00 | 34 | 1014.0 |
| 20260905193137 | 32 | 156 | 1.6 | 6.4 | 0.00 | 0.00 | 0.00 | 36 | 1014.0 |
| 20260905192617 | 31 | 212 | 3.2 | 6.4 | 0.00 | 0.00 | 0.00 | 36 | 1014.0 |
| 20260905192057 | 31 | 207 | 3.2 | 6.4 | 0.00 | 0.00 | 0.00 | 37 | 1014.1 |
| 20260905191537 | 31 | 109 | 4.8 | 9.7 | 0.00 | 0.00 | 0.00 | 33 | 1014.2 |
| 20260905191017 | 31 | 247 | 1.6 | 6.4 | 0.00 | 0.00 | 0.00 | 31 | 1014.3 |
| 20260905190458 | 31 | 224 | 3.2 | 6.4 | 0.00 | 0.00 | 0.00 | 30 | 1014.4 |
| 20260905185937 | 31 | 216 | 1.6 | 4.8 | 0.00 | 0.00 | 0.00 | 31 | 1014.5 |
| 20260905185417 | 30 | 223 | 4.8 | 9.7 | 0.00 | 0.00 | 0.00 | 33 | 1014.5 |
| 20260905184857 | 31 | 258 | 3.2 | 9.7 | 0.00 | 0.00 | 0.00 | 33 | 1014.6 |
| 20260905184337 | 31 | 207 | 3.2 | 6.4 | 0.00 | 0.00 | 0.00 | 35 | 1014.6 |
| 20260905183817 | 31 | 110 | 3.2 | 11.3 | 0.00 | 0.00 | 0.00 | 36 | 1014.6 |
| 20260905183257 | 31 | 206 | 3.2 | 9.7 | 0.00 | 0.00 | 0.00 | 35 | 1014.7 |
| 20260905182737 | 31 | 195 | 1.6 | 4.8 | 0.00 | 0.00 | 0.00 | 33 | 1014.8 |